Home   Weather   Tiraspol   Past weeks

Flag for Moldova Past Weather in Tiraspol, Moldova — Yesterday and Last 2 Weeks

Now
37 °F

Scattered clouds.


Feels Like: 29 °F
Forecast: 25 / 35 °F
Wind: 13 mph from West

Location: Chisinau International Airport

Current Time: Dec 3, 2016 at 4:01:31 pm

Latest Report: Dec 3, 2016 at 3:30 pm


Visibility: N/A

Pressure: 30.01 "Hg

Humidity: 70%

Dew Point: 28 °F

Location of TiraspolLocation

Past Weather in Tiraspol — Graph

°F

Tiraspol Temperature Yesterday

Maximum temperature yesterday: 36 °F (at 6:00 pm)
Minimum temperature yesterday: 28 °F (at 4:00 am)
Average temperature yesterday: 32 °F

High & Low Weather Summary for the Past Weeks

 TemperatureHumidityPressure
High54 °F (Nov 18, 3:00 pm)100% (Nov 23, 6:00 pm)30.51 "Hg (Nov 23, 6:00 pm)
Low19 °F (Nov 30, 7:00 am)47% (Nov 30, 3:30 pm)29.36 "Hg (Dec 2, 1:30 pm)
Average35 °F84%30.16 "Hg
* Reported Nov 18 3:00 pm — Dec 3 3:00 pm, Tiraspol, Weather by CustomWeather, © 2016

Note: Actual official high and low records may vary slightly from our data, if they occured in-between our weather recording intervals... More about our weather records

Advertising

Tiraspol Weather History for the Previous 24 Hours

Scroll right to see more
 ConditionsComfort  
Time TempWeatherWind HumidityBarometerVisibility
3:00 pm
Sat, Dec 3
37 °FScattered clouds.17 mph70%30.01 "HgN/A
2:30 pm37 °FPartly sunny.17 mph70%29.98 "HgN/A
2:00 pm37 °FPartly sunny.18 mph70%29.98 "HgN/A
1:30 pm37 °FPartly sunny.23 mph70%29.98 "HgN/A
1:00 pm37 °FPartly sunny.22 mph70%29.95 "HgN/A
12:30 pm37 °FPartly sunny.21 mph75%29.95 "HgN/A
12:00 pm37 °FBroken clouds.21 mph75%29.95 "HgN/A
11:30 am37 °FBroken clouds.21 mph75%29.92 "HgN/A
11:00 am36 °FBroken clouds.21 mph81%29.92 "HgN/A
10:30 am36 °FPartly sunny.18 mph81%29.92 "HgN/A
10:00 am34 °FSnow flurries. More clouds than sun.18 mph87%29.92 "Hg5 mi
9:30 am36 °FSprinkles. Partly sunny.20 mph81%29.89 "HgN/A
9:00 am36 °FMostly cloudy.21 mph81%29.89 "HgN/A
8:30 am36 °FLight rain. Mostly cloudy.16 mph81%29.86 "HgN/A
8:00 am36 °FLight rain. Mostly cloudy.16 mph75%29.86 "HgN/A
7:30 am36 °FMostly cloudy.20 mph75%29.83 "HgN/A
7:00 am34 °FSnow flurries. Mostly cloudy.20 mph81%29.83 "HgN/A
6:30 am34 °FSnow flurries. Mostly cloudy.17 mph81%29.83 "Hg4 mi
6:00 am34 °FOvercast.15 mph75%29.80 "HgN/A
5:30 am32 °FMostly cloudy.12 mph80%29.80 "HgN/A
5:00 am32 °FOvercast.13 mph75%29.80 "HgN/A
4:30 am30 °FOvercast.14 mph80%29.80 "HgN/A
4:00 am30 °FOvercast.15 mph75%29.77 "HgN/A
3:30 am30 °FOvercast.20 mph75%29.77 "HgN/A
3:00 am30 °FOvercast.20 mph75%29.77 "HgN/A
2:30 am30 °FOvercast.20 mph69%29.77 "HgN/A
2:00 am30 °FOvercast.20 mph69%29.74 "HgN/A
1:30 am30 °FPassing clouds.23 mph69%29.71 "HgN/A
1:00 am30 °FOvercast.25 mph69%29.68 "HgN/A
12:30 am30 °FOvercast.25 mph75%29.68 "HgN/A
12:00 am32 °FPassing clouds.26 mph75%29.65 "HgN/A
11:30 pm
Fri, Dec 2
32 °FLight snow. Overcast.24 mph80%29.62 "HgN/A
11:00 pm34 °FSnow flurries. Low clouds.22 mph81%29.59 "HgN/A
10:30 pm32 °FSnow showers. Mostly cloudy.18 mph93%29.59 "Hg1 mi
10:00 pm32 °FSnow showers. Mostly cloudy.21 mph93%29.56 "Hg1 mi
9:30 pm32 °FSnow flurries. Mostly cloudy.21 mph93%29.56 "Hg2 mi
9:00 pm32 °FSnow showers. Mostly cloudy.23 mph93%29.53 "Hg2 mi
8:30 pm34 °FSnow showers. Mostly cloudy.25 mph87%29.50 "Hg2 mi
8:00 pm34 °FLight rain. Mostly cloudy.20 mph93%29.47 "Hg3 mi
7:30 pm36 °FLight rain. Mostly cloudy.16 mph93%29.45 "Hg3 mi
7:00 pm36 °FPassing clouds.12 mph87%29.42 "HgN/A
6:30 pm36 °FPassing clouds.8 mph87%29.42 "HgN/A
6:00 pm36 °FPassing clouds.8 mph87%29.39 "Hg4 mi
5:30 pm34 °FFog.6 mph93%29.39 "Hg1 mi
5:00 pm34 °FFog.1 mph93%29.39 "Hg2 mi
4:30 pm34 °FFog.6 mph93%29.39 "Hg2 mi
4:00 pm34 °FLight rain. Fog.8 mph93%29.39 "Hg3 mi
Weather by CustomWeather, © 2016

See weather overviewHow to use our weather pages